TimeEST,TemperatureF,Dew PointF,Humidity,Sea Level PressureIn,VisibilityMPH,Wind Direction,Wind SpeedMPH,Gust SpeedMPH,PrecipitationIn,Events,Conditions,WindDirDegrees,DateUTC
12:53 AM,23.0,5.0,46,30.13,10.0,WNW,15.0,25.3,N/A,,Clear,300,2013-02-02 05:53:00
1:53 AM,23.0,5.0,46,30.15,10.0,NW,15.0,25.3,N/A,,Partly Cloudy,310,2013-02-02 06:53:00
2:53 AM,23.0,5.0,46,30.16,10.0,WNW,13.8,26.5,N/A,,Partly Cloudy,290,2013-02-02 07:53:00
3:53 AM,21.9,5.0,48,30.18,10.0,WNW,13.8,19.6,N/A,,Clear,290,2013-02-02 08:53:00
4:53 AM,21.9,6.1,51,30.19,10.0,WNW,11.5,24.2,N/A,,Clear,300,2013-02-02 09:53:00
5:53 AM,21.9,6.1,51,30.21,10.0,WNW,11.5,18.4,N/A,,Clear,300,2013-02-02 10:53:00
7:53 AM,23.0,7.0,50,30.25,10.0,WNW,6.9,17.3,N/A,,Clear,300,2013-02-02 12:53:00
8:53 AM,25.0,6.1,45,30.26,10.0,WNW,10.4,-,N/A,,Clear,300,2013-02-02 13:53:00
9:53 AM,27.0,7.0,43,30.27,10.0,West,15.0,25.3,N/A,,Clear,280,2013-02-02 14:53:00
10:53 AM,27.0,7.0,43,30.27,10.0,WNW,9.2,18.4,N/A,,Clear,300,2013-02-02 15:53:00
11:53 AM,28.9,9.0,43,30.23,10.0,West,9.2,18.4,N/A,,Partly Cloudy,260,2013-02-02 16:53:00
12:53 PM,28.9,10.9,47,30.20,10.0,Variable,5.8,16.1,N/A,,Overcast,0,2013-02-02 17:53:00
1:53 PM,28.9,14.0,54,30.17,10.0,WSW,9.2,-,N/A,,Mostly Cloudy,240,2013-02-02 18:53:00
2:53 PM,30.0,12.9,49,30.15,10.0,SW,15.0,21.9,N/A,,Mostly Cloudy,230,2013-02-02 19:53:00
3:53 PM,28.9,15.1,56,30.13,10.0,SW,10.4,17.3,N/A,,Mostly Cloudy,220,2013-02-02 20:53:00
4:53 PM,30.0,17.1,59,30.12,10.0,SW,10.4,18.4,N/A,,Overcast,230,2013-02-02 21:53:00
5:53 PM,30.9,16.0,54,30.11,10.0,SW,15.0,24.2,N/A,,Overcast,230,2013-02-02 22:53:00
6:53 PM,32.0,17.1,54,30.10,10.0,SW,11.5,24.2,N/A,,Mostly Cloudy,230,2013-02-02 23:53:00
7:53 PM,32.0,19.9,61,30.08,10.0,WSW,12.7,17.3,N/A,,Overcast,240,2013-02-03 00:53:00
8:53 PM,32.0,21.0,64,30.07,10.0,WSW,9.2,18.4,N/A,,Overcast,240,2013-02-03 01:53:00
9:53 PM,32.0,25.0,75,30.06,6.0,West,6.9,-,0.00,Snow,Light Snow,260,2013-02-03 02:53:00
10:53 PM,30.9,27.0,85,30.06,3.0,West,8.1,-,0.00,Snow,Light Snow,260,2013-02-03 03:53:00
11:01 PM,30.2,26.6,86,30.05,2.0,West,8.1,-,0.00,Snow,Light Snow,260,2013-02-03 04:01:00
11:18 PM,30.2,28.4,93,30.05,2.0,West,8.1,-,0.00,Snow,Light Snow,270,2013-02-03 04:18:00
11:25 PM,30.2,28.4,93,30.05,1.8,West,5.8,-,0.00,Snow,Light Snow,260,2013-02-03 04:25:00
11:53 PM,30.0,28.0,92,30.05,1.8,West,5.8,-,0.00,Snow,Light Snow,270,2013-02-03 04:53:00